EW7112 Weather Reports


time (UTC)temp
C
wind
direction
speed
KPH
gust
KPH
rain 1hr
cm
rain 24hr
cm
rain mn
cm
humidity
%
barometer
mb
20220927020009 20 11 0.0 0.0 0.00 0.15 0.15 53 996.8
20220927014521 21 11 0.0 0.0 0.03 0.15 0.15 51 996.7
20220927013007 21 11 0.0 0.0 0.03 0.15 0.15 50 996.5
20220927011506 22 11 0.0 0.0 0.05 0.15 0.15 48 996.4
20220927010007 23 11 0.0 0.0 0.05 0.15 0.15 44 996.3
20220927004506 23 11 0.0 0.0 0.03 0.13 0.13 41 996.2
20220927003013 25 11 0.0 0.0 0.05 0.13 0.13 36 996.1
20220927001509 26 11 0.0 0.0 0.03 0.10 0.10 32 996.0
20220927000011 27 338 0.0 3.2 0.03 0.10 0.10 30 995.9
20220926234504 28 2 0.0 1.6 0.03 0.10 0.10 29 996.0
20220926233004 28 349 0.0 6.4 0.00 0.08 0.08 28 996.0
20220926231506 29 337 0.0 8.0 0.00 0.08 0.08 27 995.9
20220926230005 30 319 1.6 11.3 0.00 0.08 0.08 25 996.1
20220926224502 30 324 0.0 8.0 0.00 0.08 0.08 25 996.0
20220926223005 31 72 0.0 6.4 0.00 0.08 0.08 24 996.1
20220926221605 30 321 0.0 9.7 0.00 0.08 0.08 26 996.1
20220926220100 30 122 3.2 9.7 0.00 0.08 0.08 23 996.3
20220926214607 30 340 1.6 17.7 0.00 0.08 0.08 24 996.3
20220926213105 30 50 1.6 9.7 0.00 0.08 0.08 25 996.3
20220926211559 30 51 3.2 14.5 0.00 0.08 0.08 23 996.3
20220926210058 30 117 1.6 19.3 0.00 0.08 0.08 25 996.4
20220926204557 30 26 0.0 9.7 0.00 0.08 0.08 25 996.6
20220926203110 30 65 1.6 12.9 0.00 0.08 0.08 25 996.9
20220926201603 30 293 4.8 9.7 0.00 0.08 0.08 23 997.1
20220926200059 30 107 0.0 11.3 0.03 0.08 0.08 25 997.3
20220926194551 30 278 1.6 17.7 0.05 0.08 0.08 26 997.6
20220926193141 30 19 0.0 8.0 0.05 0.08 0.08 24 997.8
20220926191556 30 77 0.0 11.3 0.05 0.08 0.08 27 998.2
20220926190051 29 9 0.0 11.3 0.05 0.05 0.05 27 998.4
20220926184543 29 49 4.8 14.5 0.03 0.03 0.03 25 998.7
20220926183041 29 93 0.0 14.5 0.03 0.03 0.03 28 999.0
20220926181541 28 72 1.6 12.9 0.03 0.03 0.03 27 999.2
20220926180040 28 266 0.0 12.9 0.00 0.00 0.00 28 999.2
20220926174546 28 345 1.6 8.0 0.00 0.00 0.00 29 999.5
20220926173037 28 77 1.6 8.0 0.00 0.00 0.00 27 999.7
20220926171537 28 60 0.0 11.3 0.00 0.00 0.00 28 999.8
20220926170034 28 72 3.2 14.5 0.00 0.00 0.00 29 999.9
20220926164534 27 61 1.6 17.7 0.00 0.00 0.00 31 1000.0
20220926163039 27 268 0.0 9.7 0.00 0.00 0.00 34 1000.2
20220926161546 27 103 0.0 6.4 0.00 0.00 0.00 36 1000.2
20220926160021 26 226 1.6 9.7 0.00 0.00 0.00 37 1000.2
20220926154523 25 58 3.2 16.1 0.00 0.00 0.00 38 1000.2
20220926153017 25 81 0.0 8.0 0.00 0.00 0.00 43 1000.2
20220926151514 25 72 4.8 11.3 0.00 0.00 0.00 41 1000.1
20220926150013 25 60 0.0 8.0 0.00 0.00 0.00 45 1000.0
20220926144509 24 91 0.0 4.8 0.00 0.00 0.00 48 999.8
20220926143013 23 63 0.0 6.4 0.00 0.00 0.00 49 999.7
20220926141507 23 257 0.0 1.6 0.00 0.00 0.00 52 999.5
20220926140006 22 151 0.0 1.6 0.00 0.00 0.00 56 999.4
20220926134504 21 23 0.0 3.2 0.00 0.00 0.00 58 999.3
20220926133001 21 347 0.0 1.6 0.00 0.00 0.00 59 999.0
20220926131613 20 318 0.0 0.0 0.00 0.00 0.00 62 999.1
20220926130102 18 304 0.0 0.0 0.00 0.00 0.00 64 998.8
20220926124610 18 302 0.0 0.0 0.00 0.00 0.00 68 998.7
20220926123053 18 319 0.0 0.0 0.00 0.00 0.00 62 998.6
20220926121551 18 15 0.0 0.0 0.00 0.00 0.00 57 998.3
20220926120103 18 103 0.0 0.0 0.00 0.00 0.00 57 998.2
20220926114546 19 42 0.0 0.0 0.00 0.00 0.00 56 998.1
20220926113045 19 43 0.0 0.0 0.00 0.00 0.00 55 997.9
20220926111540 20 75 0.0 0.0 0.00 0.00 0.00 53 997.9
20220926110047 20 81 0.0 0.0 0.00 0.00 0.00 53 997.7
20220926104558 20 25 0.0 0.0 0.00 0.00 0.00 54 997.5
20220926103034 20 23 0.0 0.0 0.00 0.00 0.00 53 997.4
20220926101540 20 73 0.0 0.0 0.00 0.00 0.00 52 997.3
20220926100028 21 73 0.0 0.0 0.00 0.00 0.00 51 997.1
20220926094528 21 140 0.0 8.0 0.00 0.00 0.00 50 997.0
20220926093023 21 336 0.0 1.6 0.00 0.00 0.00 50 996.9
20220926091528 21 41 0.0 8.0 0.00 0.00 0.00 49 996.8
20220926090019 21 342 0.0 4.8 0.00 0.00 0.00 51 996.7
20220926084517 22 315 0.0 4.8 0.00 0.00 0.00 50 996.7
20220926083014 22 215 0.0 6.4 0.00 0.00 0.00 49 996.6
20220926081519 22 110 0.0 3.2 0.00 0.00 0.00 48 996.5
20220926080009 22 82 0.0 9.7 0.00 0.00 0.00 48 996.4
20220926074507 23 91 0.0 4.8 0.00 0.00 0.00 48 996.3
20220926073011 23 191 0.0 6.4 0.00 0.00 0.00 47 996.1
20220926071502 23 104 0.0 4.8 0.00 0.00 0.00 46 996.1
20220926070122 23 347 0.0 8.0 0.00 0.00 0.00 46 996.0
20220926064603 23 129 0.0 6.4 0.00 0.00 0.00 45 995.7
20220926063055 24 226 0.0 4.8 0.00 0.00 0.00 46 995.5
20220926061552 24 191 0.0 6.4 0.00 0.00 0.00 45 995.5
20220926060051 24 336 0.0 3.2 0.00 0.00 0.00 44 995.5
20220926054550 24 335 0.0 1.6 0.00 0.00 0.00 45 995.4
20220926053048 23 349 0.0 3.2 0.00 0.00 0.00 46 995.4
20220926051618 24 321 0.0 0.0 0.00 0.00 0.00 46 995.5
20220926050044 24 321 0.0 0.0 0.00 0.00 0.00 44 995.5
20220926044557 25 321 0.0 0.0 0.00 0.00 0.00 43 995.5
20220926043041 25 321 0.0 0.0 0.00 0.00 0.00 42 995.3
20220926041545 26 321 0.0 1.6 0.00 0.00 0.00 41 995.3
20220926040117 26 108 0.0 3.2 0.00 0.00 0.00 41 995.1
20220926034604 26 323 0.0 0.0 0.00 0.00 0.00 41 995.1
20220926033037 26 44 0.0 1.6 0.00 0.00 0.00 40 994.9
20220926031542 26 46 0.0 1.6 0.00 0.00 0.00 41 994.8
20220926030042 26 45 0.0 0.0 0.00 0.00 0.00 42 994.6
20220926024534 27 67 0.0 1.6 0.00 0.00 0.00 42 994.4
20220926023054 27 67 0.0 0.0 0.00 0.00 0.00 44 994.1
20220926021538 28 67 0.0 0.0 0.00 0.00 0.00 41 993.9